Location: Mladá Boleslav
(50.4134°N, 14.9084°E)
Time: 13:00:30
(UTC+02:00)

KKS-1 - Pass Details

Date: 31 May 2024
Orbit: 626 x 640 km, 98.1° (Epoch: 16 June)

Event Time Altitude Azimuth Distance (km) Brightness Sun altitude
Rises 23:57:10 0° 19° (NNE) 2,938 ? -16.4°
Reaches altitude 10° 23:59:29 10° 26° (NNE) 2,023 ? -16.5°
Maximum altitude 00:03:40 43° 98° (E) 894 ? -16.6°
Enters shadow 00:05:17 30° 147° (SSE) 1,130 ? -16.7°
